Minot AFB, ND

11:28 AM CST on November 18, 2019 (GMT -0600)
Minot Air Force Base

Weather History for KMIB - September, 2019

Change the Weather History Date:

Friday, September 13, 2019

  Actual Average Record
Temperature  
Mean Temperature 56 °F -  
Max Temperature 66 °F 69 °F 93 °F (2015)
Min Temperature 47 °F 44 °F 38 °F (2016)
Degree Days  
Heating Degree Days 9    
Growing Degree Days 6 (Base 50)    
Moisture  
Dew Point 47 °F    
Average Humidity 85    
Maximum Humidity 100    
Minimum Humidity 47    
Precipitation  
Precipitation 0.00 in - - ()
Sea Level Pressure  
Sea Level Pressure 30.02 in    
Wind  
Wind Speed 11 mph (WNW)    
Max Wind Speed 15 mph    
Max Gust Speed -    
Visibility 10 miles    
Events      
Averages and records for this station are not official NWS values.
T = Trace of Precipitation, MM = Missing Value Source: NWS Daily Summary

Daily Weather History Graph

Daily Weather History Graph

Search for Another Location

Airport or City:

Astronomy

Sep. 13, 2019 Rise Set
Actual Time 7:19 AM CDT 8:02 PM CDT
Civil Twilight 6:47 AM CDT 8:34 PM CDT
Nautical Twilight 6:09 AM CDT 9:11 PM CDT
Astronomical Twilight 5:30 AM CDT 9:51 PM CDT
Moon 8:22 PM CDT (9/13) 6:29 AM CDT (9/13)
Length of Visible Light 13h 46m
Length of Day
12h 43m
Full, 100% of the Moon is Illuminated
Sep 13
Full
Sep 13
Full
Sep 21
Last Quarter
Sep 28
New
Oct 5
First Quarter

Hourly Weather History & Observations

Time (CDT) Temp. Dew Point Humidity Pressure Visibility Wind Dir Wind Speed Gust Speed Precip Events Conditions
12:02 AM 48.2 °F 46.4 °F 93% 30.04 in 10.0 mi NW 12.7 mph - N/A   Overcast
12:07 AM 48.2 °F 46.4 °F 93% 30.04 in 8.0 mi NW 9.2 mph - N/A   Overcast
12:12 AM 48.2 °F 46.4 °F 93% 30.04 in 5.0 mi NW 9.2 mph - N/A   Overcast
12:32 AM 48.2 °F 46.4 °F 93% 30.03 in 10.0 mi NW 11.5 mph - N/A   Overcast
12:42 AM 48.2 °F 46.4 °F 93% 30.03 in 10.0 mi WNW 13.8 mph - N/A   Overcast
12:47 AM 48.2 °F 46.4 °F 93% 30.03 in 9.0 mi WNW 12.7 mph - N/A   Overcast
12:50 AM 48.2 °F 48.2 °F 100% 30.03 in 8.0 mi WNW 13.8 mph - N/A   Overcast
12:56 AM 48.2 °F 47.3 °F 97% 30.03 in 10.0 mi WNW 13.8 mph - N/A   Overcast
1:25 AM 48.2 °F 46.4 °F 93% 30.02 in 8.0 mi NW 13.8 mph - N/A   Light Drizzle
1:45 AM 48.2 °F 46.4 °F 93% 30.03 in 10.0 mi NW 11.5 mph - N/A   Overcast
1:56 AM 48.0 °F 46.9 °F 96% 30.03 in 10.0 mi NW 11.5 mph - 0.00 in   Overcast
2:08 AM 48.2 °F 46.4 °F 93% 30.02 in 9.0 mi NW 10.4 mph - N/A   Light Drizzle
2:56 AM 48.2 °F 47.1 °F 96% 30.02 in 10.0 mi NW 11.5 mph - 0.00 in   Overcast
3:01 AM 48.2 °F 46.4 °F 93% 30.02 in 10.0 mi NW 11.5 mph - N/A   Overcast
3:56 AM 48.2 °F 47.1 °F 96% 30.02 in 10.0 mi NW 12.7 mph - N/A   Overcast
4:56 AM 48.4 °F 46.9 °F 95% 30.02 in 10.0 mi NW 13.8 mph - N/A   Overcast
5:06 AM 48.2 °F 46.4 °F 93% 30.02 in 10.0 mi NW 11.5 mph - N/A   Overcast
5:36 AM 48.2 °F 46.4 °F 93% 30.02 in 10.0 mi NW 10.4 mph - N/A   Overcast
5:46 AM 48.2 °F 46.4 °F 93% 30.02 in 10.0 mi WNW 10.4 mph - N/A   Overcast
5:51 AM 48.2 °F 46.4 °F 93% 30.02 in 10.0 mi WNW 10.4 mph - N/A   Overcast
5:56 AM 48.2 °F 46.8 °F 95% 30.02 in 10.0 mi WNW 12.7 mph - N/A   Overcast
6:56 AM 48.4 °F 46.9 °F 95% 30.03 in 10.0 mi WNW 11.5 mph - N/A   Overcast
7:01 AM 48.2 °F 46.4 °F 93% 30.03 in 10.0 mi WNW 11.5 mph - N/A   Overcast
7:56 AM 47.8 °F 46.4 °F 95% 30.05 in 10.0 mi WNW 9.2 mph - N/A   Overcast
9:59 AM 53.6 °F 48.2 °F 82% 30.08 in 7.0 mi WNW 11.5 mph - N/A   Mostly Cloudy
10:56 AM - - N/A% 30.04 in - West 15.0 mph - N/A   Unknown
10:58 AM 53.6 °F 50.0 °F 88% 30.08 in 7.0 mi West 11.5 mph - N/A   Mostly Cloudy
11:21 AM 53.6 °F 48.2 °F 82% 30.06 in 10.0 mi West 15.0 mph - N/A   Mostly Cloudy
11:56 AM 53.6 °F 46.9 °F 78% 30.06 in 10.0 mi WNW 11.5 mph - N/A   Mostly Cloudy
12:51 PM 55.4 °F 46.4 °F 72% 30.04 in 10.0 mi West 9.2 mph - N/A   Mostly Cloudy
12:56 PM 55.2 °F 47.1 °F 74% 30.04 in 10.0 mi WNW 11.5 mph - N/A   Mostly Cloudy
1:16 PM 55.4 °F 46.4 °F 72% 30.04 in 10.0 mi WNW 10.4 mph - N/A   Scattered Clouds
2:56 PM 59.9 °F 44.6 °F 57% 30.01 in 10.0 mi WNW 6.9 mph - N/A   Clear
3:56 PM 63.1 °F 47.1 °F 56% 29.99 in 10.0 mi WNW 8.1 mph - N/A   Clear
4:56 PM 64.8 °F 45.7 °F 50% 29.98 in 10.0 mi West 5.8 mph - N/A   Clear
5:56 PM 65.8 °F 45.0 °F 47% 29.96 in 10.0 mi West 4.6 mph - N/A   Clear
6:56 PM 64.8 °F 47.3 °F 53% 29.94 in 10.0 mi South 4.6 mph - N/A   Clear
7:56 PM 58.8 °F 49.8 °F 72% 29.96 in 10.0 mi SSE 5.8 mph - N/A   Clear
8:56 PM 54.1 °F 49.1 °F 83% 29.96 in 10.0 mi SSE 4.6 mph - N/A   Clear
9:56 PM 51.6 °F 47.8 °F 87% 29.92 in 10.0 mi SSE 6.9 mph - N/A   Clear
10:56 PM 49.6 °F 46.8 °F 90% 29.96 in 10.0 mi SSE 5.8 mph - N/A   Clear
11:56 PM 50.2 °F 48.0 °F 92% 29.96 in 10.0 mi South 5.8 mph - N/A   Clear